Regional Weather Roundup
Issued by NWS

Home | Current Version | Previous Version | Graphics & Text | Print | Product List | Glossary On
Versions: 1 2 3 4 5 6 7 8 9 10 11 12 13 14 15 16 17 18 19 20 21 22 23 24 25 26 27 28 29 30 31 32 33 34 35 36 37 38 39 40 41 42 43 44 45 46 47 48 49 50
000
ASUS43 KMPX 280301
RWRMN
WEATHER ROUNDUP FOR MINNESOTA
NATIONAL WEATHER SERVICE TWIN CITIES/CHANHASSEN MN
900 PM CST FRI FEB 27 2015


NOTE: "FAIR" INDICATES FEW OR NO CLOUDS BELOW 12,000 FEET WITH NO
SIGNIFICANT WEATHER AND/OR OBSTRUCTIONS TO VISIBILITY. N/A MEANS
CURRENT SKY AND/OR WEATHER CONDITIONS ARE NOT AVAILABLE.

MNZ060>063-068>070-280400-
   Twin Cities Metro

CITY           SKY/WX    TMP DP  RH WIND       PRES   REMARKS
TWIN CITIES    CLEAR      8  -3  61 SW7       30.53S WCI  -3
ST PAUL        CLEAR      7  -3  64 S5        30.55S WCI  -2
CRYSTAL        CLEAR      8  -1  66 S5        30.51S WCI   0
BLAINE         CLEAR     10   1  67 S3        30.50F
LAKEVILLE      CLEAR      0  -4  85 S1        30.52S
EDEN PRAIRIE   CLEAR      4  -4  69 SW6       30.51S WCI  -7
SOUTH ST PAUL  CLEAR      7  -3  64 SW3       30.54R
LAKE ELMO      FAIR       5   0  78 S6        30.53S WCI  -6
$$
MNZ001>005-007-008-013>017-022>024-027-028-280400-
   Northwest Minnesota

CITY           SKY/WX    TMP DP  RH WIND       PRES   REMARKS
BEMIDJI        CLEAR      7  -6  56 S3        30.34S
HALLOCK        PTCLDY     3  -2  78 S10       30.31S WCI -12
ROSEAU         MOCLDY     9   1  72 SW13      30.30F WCI  -7
WARROAD        PTCLDY     7   0  72 SW8       30.30S WCI  -6
THIEF RVR FALL CLEAR      3  -2  78 S8        30.33F WCI -10
CROOKSTON      PTCLDY     7   0  72 S10       30.37S WCI  -8
FOSSTON        CLEAR     -6  -9  84 S10       30.35S WCI -23
DETROIT LAKES  CLEAR      7   0  72 S5        30.38R WCI  -2
MOORHEAD       CLEAR     10   0  61 S9        30.40S WCI  -2
PARK RAPIDS    CLEAR      4  -6  63 S6        30.36S WCI  -7
MAHNOMEN       FAIR       3  -5  70 S8        30.36S WCI -10
$$
MNZ006-009>011-018-025>026-280400-
   North Central Minnesota

CITY           SKY/WX    TMP DP  RH WIND       PRES   REMARKS
BAUDETTE       CLEAR      3  -8  60 S7        30.30S WCI  -9
FLAG ISLAND    PTCLDY     3  -4  72 S5        30.28F WCI  -6
INTL FALLS     CLEAR      7  -9  48 SW7       30.32S WCI  -5
WASKISH        CLEAR      7  -2  66 CALM      30.34S
BIG FORK       CLEAR     -2 -15  55 CALM      30.34R
LONGVILLE      CLEAR      7  -6  56 SW3       30.38R
GRAND RAPIDS   CLEAR     10  -6  48 SW6       30.35R WCI   1
CRANE LAKE     CLEAR     -2 -17  50 CALM      30.36R
ORR            CLEAR      5 -15  39 CALM      30.30F
COOK           CLEAR      7 -11  43 CALM      30.33S
WALKER         FAIR       8  -7  52 SW5       30.36S WCI  -1
$$
MNZ012-019>021-037-280400-
   Northeast Minnesota

CITY           SKY/WX    TMP DP  RH WIND       PRES   REMARKS
DULUTH         CLEAR     10  -7  46 SW10      30.37S WCI  -4
ELY            PTCLDY     9 -11  40 SW5       30.32S WCI   0
HIBBING        CLEAR      6 -11  45 S3        30.35S
EVELETH        CLEAR      3  -9  55 SW7       30.36R WCI  -9
DULUTH HARBOR  CLEAR     12  -2  52 SW12      30.46R WCI  -2
TWO HARBORS    CLEAR     12  -6  44 W6        30.37S WCI   3
SILVER BAY     CLEAR     10  -8  44 CALM      30.36S
GRAND MARAIS     N/A     14  -5  42 W6        30.39R WCI   5
G MARAIS ARPRT PTCLDY     7 -13  40 SW5       30.29R WCI  -2
$$
MNZ029>031-032-039>041-046>048-054>057-064-280400-
   West Central Minnesota

CITY           SKY/WX    TMP DP  RH WIND       PRES   REMARKS
FERGUS FALLS   CLEAR      1  -6  71 S8        30.45S WCI -12
WHEATON        CLEAR      5  -2  72 S8        30.44F WCI  -8
MORRIS         CLEAR      1  -4  78 S7        30.42S WCI -11
ALEXANDRIA     FAIR       4  -4  69 S8        30.41S WCI  -9
ELBOW LAKE     FAIR       0  -6  76 S10       30.41S WCI -17
WADENA         CLEAR      0  -8  71 CALM      30.39S
APPLETON       CLEAR      7  -2  66 S5        30.45S WCI  -2
BENSON         CLEAR      3  -2  78 SW6       30.44S WCI  -8
ORTONVILLE     CLEAR      5  -4  66 S6        30.43S WCI  -6
MADISON        CLEAR      3  -2  78 S8        30.45S WCI -10
WILLMAR        FAIR       1  -6  71 S3        30.47R
$$
MNZ033>034-036-042>043-049>051-058-059-280400-
   Central Minnesota

CITY           SKY/WX    TMP DP  RH WIND       PRES   REMARKS
ST CLOUD       CLEAR      5  -3  69 S7        30.47S WCI  -7
SAUK CENTRE    FAIR       3  -3  75 S8        30.44R WCI -10
PAYNESVILLE    CLEAR      4  -2  75 SE5       30.46R WCI  -5
AITKIN         CLEAR      9  -8  47 S3        30.39S
PINE RIVER     CLEAR      0  -8  71 CALM      30.42R
BRAINERD       CLEAR      4 -10  52 SW6       30.41S WCI  -7
STAPLES        CLEAR      1  -8  66 S5        30.40S WCI  -8
LONG PRAIRIE   FAIR       3  -4  72 S6        30.42S WCI  -8
LITTLE FALLS   CLEAR      5  -6  61 CALM      30.45S
LITCHFIELD     CLEAR      3   0  85 CALM      30.48S
MAPLE LAKE     CLEAR      7   1  76 S3        30.49S
$$
MNZ037-044-045-052-053-280400-
   East Central Minnesota

CITY           SKY/WX    TMP DP  RH WIND       PRES   REMARKS
PRINCETON      CLEAR      7  -2  66 S5        30.48R WCI  -2
MORA           CLEAR      7  -4  61 SW7       30.48S WCI  -5
RUSH CITY      CLEAR      8  -2  63 SW6       30.49R WCI  -2
MOOSE LAKE     CLEAR      5  -6  61 CALM      30.42R
HINCKLEY       FAIR       9   0  66 SW6       30.46R WCI  -1
CLOQUET        CLEAR      9  -9  43 SW6       30.39S WCI  -1
MCGREGOR       CLEAR      9  -4  56 SW3       30.41S
$$
MNZ071>073-080-081-089-090-097-098-280400-
   Southwest Minnesota

CITY           SKY/WX    TMP DP  RH WIND       PRES   REMARKS
MONTEVIDEO     CLEAR      7   0  72 SW7       30.47R WCI  -5
GRANITE FALLS  CLEAR     -1  -6  80 S8        30.49R WCI -16
CANBY          CLEAR      3  -3  75 S6        30.45S WCI  -8
MARSHALL       CLEAR      3  -4  72 S6        30.46S WCI  -8
REDWOOD FALLS  CLEAR      3  -3  76 SW9G30    30.49R WCI -12
OLIVIA         CLEAR      1  -4  78 S7        30.47S WCI -11
PIPESTONE      CLEAR      3  -2  78 S8        30.41R WCI -10
WINDOM         CLEAR      1  -2  85 CALM      30.47R
WORTHINGTON    CLEAR     19  -9  27 S12       30.47R WCI   7
JACKSON        CLEAR      1  -6  71 S9        30.48R WCI -14
TRACY          CLEAR      7   0  73 S10       30.45S WCI  -8
SLAYTON        FAIR       0  -6  76 CALM      30.44S
$$
MNZ065>067-074>077-082>085-091>093-280400-
   South Central Minnesota

CITY           SKY/WX    TMP DP  RH WIND       PRES   REMARKS
MANKATO        FAIR       3  -6  66 S8        30.51S WCI -10
NEW ULM        CLEAR      1  -4  78 S7        30.51R WCI -11
ST JAMES       CLEAR      3  -2  78 S6        30.52R WCI  -8
FAIRMONT       CLEAR      1  -6  71 S7        30.49R WCI -11
GLENCOE        CLEAR      5  -1  77 S5        30.49S WCI  -4
FARIBAULT      FAIR       0  -6  78 S5        30.53R WCI -10
OWATONNA       PTCLDY     1  -4  78 S7        30.52R WCI -11
WASECA         CLEAR     -2  -8  78 S3        30.53S
ALBERT LEA     PTCLDY     1  -2  85 S5        30.52R WCI  -8
$$
MNZ078>079-086>088-094>096-280400-
   Southeast Minnesota

CITY           SKY/WX    TMP DP  RH WIND       PRES   REMARKS
ROCHESTER      PTCLDY    -5 -10  79 S8        30.52R WCI -20
RED WING       CLEAR      1  -6  71 CALM      30.55S
STANTON        PTCLDY     1  -5  76 S5        30.53R WCI  -9
DODGE CENTER   PTCLDY    -2  -8  78 S7        30.50R WCI -16
WINONA         CLEAR      9   0  66 SW3       30.60R
AUSTIN         PTCLDY    -2  -8  78 S6        30.53R WCI -14
PRESTON        PTCLDY    -3  -8  81 SW6       30.54R WCI -15
$$
ABBREVIATIONS USED IN REMARKS
   TC - TEMPERATURES IN CELSIUS
  WCI - WIND CHILL INDEX
   HX - HEAT INDEX
  VSB - VISIBILITY
$$



USA.gov is the U.S. government's official web portal to all federal, state and local government web resources and services.